This is the latest recevied weather packets stored in our database for station/object W0SS-13. If no packets are shown the sender has not sent any weather packets the latest 1 day(s).
| Time | Temp. | Humidity | Pressure | Rain* | Wind** | Luminosity | Snow |
|---|---|---|---|---|---|---|---|
| 1778029692 | 10.56° C | 82% | 1013 hPa | 0 mm | 0 m/s | 8 W/m² | - |
| 1778029389 | 10.56° C | 81% | 1012.9 hPa | 0 mm | 0 m/s | 10 W/m² | - |
| 1778029086 | 10.56° C | 82% | 1012.9 hPa | 0 mm | 0 m/s | 12 W/m² | - |
| 1778028783 | 11.11° C | 82% | 1012.9 hPa | 0 mm | 0 m/s | 14 W/m² | - |
| 1778028479 | 10.56° C | 80% | 1012.7 hPa | 0 mm | 0 m/s | 18 W/m² | - |
| 1778028177 | 11.11° C | 79% | 1013.1 hPa | 0 mm | 0 m/s | 21 W/m² | - |
| 1778027873 | 11.11° C | 79% | 1012.8 hPa | 0 mm | 0 m/s | 24 W/m² | - |
| 1778027569 | 11.11° C | 78% | 1013 hPa | 0 mm | 0 m/s | 33 W/m² | - |
| 1778027265 | 11.11° C | 79% | 1012.9 hPa | 0 mm | 0.89 m/s, 272° | 29 W/m² | - |
| 1778026962 | 11.11° C | 79% | 1013 hPa | 0 mm | 0.45 m/s, 56° | 29 W/m² | - |
| 1778026657 | 11.11° C | 79% | 1013 hPa | 0 mm | 0.45 m/s, 276° | 34 W/m² | - |
| 1778026355 | 11.11° C | 78% | 1012.9 hPa | 0 mm | 0.89 m/s, 266° | 30 W/m² | - |
| 1778026052 | 11.11° C | 79% | 1012.6 hPa | 0 mm | 0.45 m/s, 299° | 39 W/m² | - |
| 1778025750 | 11.11° C | 78% | 1012.5 hPa | 0 mm | 0.45 m/s, 300° | 46 W/m² | - |
| 1778025446 | 11.11° C | 78% | 1012.6 hPa | 0 mm | 0.89 m/s, 292° | 45 W/m² | - |
| 1778025144 | 11.11° C | 77% | 1012.7 hPa | 0 mm | 0.45 m/s, 281° | 49 W/m² | - |
| 1778024841 | 11.67° C | 77% | 1012.7 hPa | 0 mm | 0.45 m/s, 311° | 72 W/m² | - |
| 1778024538 | 11.67° C | 76% | 1012.8 hPa | 0 mm | 0.89 m/s, 273° | 114 W/m² | - |
| 1778024234 | 11.67° C | 77% | 1012.7 hPa | 0 mm | 0 m/s | 150 W/m² | - |
| 1778023933 | 11.67° C | 77% | 1012.3 hPa | 0 mm | 0 m/s | 131 W/m² | - |
| 1778023630 | 11.67° C | 76% | 1012.6 hPa | 0 mm | 0.45 m/s, 262° | 83 W/m² | - |
| 1778023327 | 11.67° C | 76% | 1012.7 hPa | 0 mm | 0 m/s | 110 W/m² | - |
| 1778023024 | 11.67° C | 76% | 1012.6 hPa | 0 mm | 0 m/s | 112 W/m² | - |
| 1778022723 | 11.11° C | 77% | 1012.7 hPa | 0 mm | 0 m/s | 99 W/m² | - |
| 1778022421 | 11.11° C | 78% | 1012.9 hPa | 0 mm | 0 m/s | 90 W/m² | - |
* Rain latest hour (hover to see other rain measurements)
** Current wind speed in m/s (hover to see current wind gust speed)